Weather History for Wayne, NE

Change the Weather History Date:

Friday, January 18, 2013

  Actual Average (KOFK) Record (KOFK)
Temperature  
Mean Temperature 44 °F 22 °F  
Max Temperature 55 °F 33 °F 61 °F (1951)
Min Temperature 32 °F 12 °F -21 °F (1940)
Degree Days  
Heating Degree Days 22 43  
Month to date heating degree days 774  
Since 1 July heating degree days 3480  
Cooling Degree Days 0 0  
Month to date cooling degree days 0  
Year to date cooling degree days 0  
Moisture  
Dew Point 29 °F    
Average Humidity 68    
Maximum Humidity 93    
Minimum Humidity 32    
Precipitation  
Precipitation 0.00 in 0.02 in 0.39 in (1975)
Month to date precipitation 0.33  
Year to date precipitation 0.33  
Snow  
Snow 0.00 in 0.20 in - ()
Month to date snowfall 3.5  
Since 1 July snowfall 14.4  
Snow Depth -    
Sea Level Pressure  
Sea Level Pressure 29.95 in    
Wind  
Wind Speed 9 mph (SW)    
Max Wind Speed 16 mph    
Max Gust Speed 16 mph    
Visibility 10 miles    
Events      
T = Trace of Precipitation, MM = Missing Value Source: NWS Daily Summary

Daily Weather History Graph

Daily Weather History Graph

Search for Another Location

Airport:

Trip Planner

Search our weather history database for the weather conditions in past years. The results will help you decide how hot, cold, wet, or windy it might be!

Date:

Astronomy

Jan. 18, 2013 Rise Set
Actual Time 7:52 AM CST 5:24 PM CST
Civil Twilight 7:21 AM CST 5:55 PM CST
Nautical Twilight 6:47 AM CST 6:30 PM CST
Astronomical Twilight 6:13 AM CST 7:03 PM CST
Moon 11:22 AM CST (1/18) 12:25 AM CST (1/18)
Length of Visible Light 10h 33m
Length of Day
9h 32m
Waxing Crescent, 47% of the Moon is Illuminated
Jan 18
Waxing Crescent
Jan 18
First Quarter
Jan 26
Full
Feb 3
Last Quarter
Feb 10
New

Hourly Weather History & Observations

Time (CST) Temp. Windchill Dew Point Humidity Pressure Visibility Wind Dir Wind Speed Gust Speed Precip Events Conditions
12:15 AM 32.0 °F 23.0 °F 30.2 °F 93% 30.19 in 10.0 mi SSW 11.5 mph - N/A   Clear
12:35 AM 32.0 °F 23.0 °F 29.8 °F 92% 30.18 in 10.0 mi South 11.5 mph - N/A   Clear
12:55 AM 32.0 °F 24.2 °F 29.8 °F 92% 30.17 in 10.0 mi South 9.2 mph - N/A   Clear
1:15 AM 32.2 °F 25.0 °F 29.7 °F 90% 30.16 in 10.0 mi SSW 8.1 mph - N/A   Clear
1:35 AM 32.0 °F 23.6 °F 29.7 °F 91% 30.15 in 10.0 mi SSW 10.4 mph - N/A   Clear
1:55 AM 32.2 °F 25.8 °F 29.3 °F 89% 30.14 in 10.0 mi South 6.9 mph - N/A   Clear
2:15 AM 32.0 °F 24.2 °F 28.9 °F 88% 30.14 in 10.0 mi South 9.2 mph - N/A   Clear
2:35 AM 32.9 °F 25.3 °F 29.1 °F 86% 30.12 in 10.0 mi SSW 9.2 mph - N/A   Clear
2:55 AM 32.9 °F 27.5 °F 29.1 °F 86% 30.10 in 10.0 mi South 5.8 mph - N/A   Clear
3:15 AM 32.2 °F 26.7 °F 28.4 °F 86% 30.08 in 10.0 mi SSW 5.8 mph - N/A   Clear
3:35 AM 32.9 °F 24.7 °F 28.8 °F 85% 30.07 in 10.0 mi SSW 10.4 mph - N/A   Clear
3:55 AM 34.2 °F 25.7 °F 28.8 °F 81% 30.06 in 10.0 mi SW 11.5 mph - N/A   Clear
4:15 AM 33.8 °F 27.0 °F 28.4 °F 81% 30.05 in 10.0 mi SSW 8.1 mph - N/A   Clear
4:35 AM 34.3 °F 26.5 °F 28.2 °F 78% 30.03 in 10.0 mi SW 10.4 mph - N/A   Clear
4:55 AM 35.2 °F 27.6 °F 28.0 °F 75% 30.01 in 10.0 mi SSW 10.4 mph - N/A   Clear
5:15 AM 36.0 °F 28.0 °F 27.9 °F 72% 30.00 in 10.0 mi SW 11.5 mph - N/A   Clear
5:35 AM 35.6 °F 28.0 °F 27.7 °F 73% 30.00 in 10.0 mi SW 10.4 mph - N/A   Clear
5:55 AM 35.2 °F 26.2 °F 27.7 °F 74% 29.98 in 10.0 mi SSW 13.8 mph - N/A   Clear
6:15 AM 35.1 °F 25.5 °F 27.9 °F 75% 29.97 in 10.0 mi SSW 15.0 mph - N/A   Clear
6:35 AM 34.7 °F 25.5 °F 27.9 °F 76% 29.97 in 10.0 mi SW 13.8 mph - N/A   Clear
6:55 AM 34.7 °F 25.9 °F 27.9 °F 76% 29.97 in 10.0 mi SW 12.7 mph - N/A   Clear
7:15 AM 34.7 °F 29.6 °F 27.5 °F 75% 29.97 in 10.0 mi SSW 5.8 mph - N/A   Clear
7:35 AM 33.3 °F 27.1 °F 27.5 °F 79% 29.96 in 10.0 mi SSW 6.9 mph - N/A   Clear
7:55 AM 32.4 °F 27.9 °F 27.3 °F 82% 29.96 in 10.0 mi SSW 4.6 mph - N/A   Clear
8:15 AM 32.9 °F - 27.1 °F 79% 29.96 in 10.0 mi Calm Calm - N/A   Clear
8:35 AM 32.0 °F 22.1 °F 27.0 °F 82% 29.95 in 10.0 mi SSW 13.8 mph - N/A   Clear
8:55 AM 33.1 °F 22.6 °F 27.9 °F 81% 29.95 in 10.0 mi SSW 16.1 mph - N/A   Clear
9:15 AM 35.1 °F 27.9 °F 28.0 °F 76% 29.96 in 10.0 mi SW 9.2 mph - N/A   Clear
9:35 AM 36.7 °F 28.9 °F 27.9 °F 70% 29.96 in 10.0 mi SW 11.5 mph - N/A   Clear
9:55 AM 38.1 °F 31.7 °F 28.6 °F 69% 29.96 in 10.0 mi SW 9.2 mph - N/A   Clear
10:15 AM 39.6 °F 31.7 °F 28.4 °F 64% 29.95 in 10.0 mi SW 13.8 mph - N/A   Clear
10:35 AM 41.2 °F 35.5 °F 28.2 °F 60% 29.94 in 10.0 mi SW 9.2 mph - N/A   Clear
10:55 AM 43.0 °F 36.4 °F 27.0 °F 53% 29.93 in 10.0 mi WSW 12.7 mph - N/A   Clear
11:15 AM 44.1 °F 38.1 °F 26.6 °F 50% 29.93 in 10.0 mi West 11.5 mph - N/A   Clear
11:35 AM 45.3 °F 39.3 °F 27.1 °F 49% 29.93 in 10.0 mi WSW 12.7 mph - N/A   Clear
11:55 AM 46.4 °F 40.7 °F 28.2 °F 49% 29.92 in 10.0 mi West 12.7 mph - N/A   Clear
12:15 PM 47.8 °F - 28.2 °F 47% 29.90 in 10.0 mi WSW 11.5 mph 16.1 mph N/A   Clear
12:35 PM 49.1 °F - 28.4 °F 45% 29.90 in 10.0 mi WSW 11.5 mph - N/A   Clear
12:55 PM 50.5 °F - 28.0 °F 42% 29.89 in 10.0 mi West 11.5 mph - N/A   Clear
1:15 PM 52.0 °F - 26.4 °F 37% 29.89 in 10.0 mi West 11.5 mph - N/A   Clear
1:35 PM 53.1 °F - 26.2 °F 35% 29.88 in 10.0 mi West 8.1 mph - N/A   Clear
1:55 PM 53.6 °F - 26.8 °F 36% 29.88 in 10.0 mi WSW 9.2 mph - N/A   Clear
2:15 PM 54.1 °F - 27.0 °F 35% 29.88 in 10.0 mi WSW 9.2 mph - N/A   Clear
2:35 PM 55.0 °F - 26.8 °F 34% 29.87 in 10.0 mi WSW 9.2 mph - N/A   Clear
2:55 PM 55.4 °F - 26.1 °F 32% 29.87 in 10.0 mi SW 6.9 mph - N/A   Clear
3:15 PM 55.4 °F - 27.7 °F 35% 29.86 in 10.0 mi SW 8.1 mph - N/A   Clear
3:35 PM 55.2 °F - 28.0 °F 35% 29.86 in 10.0 mi SW 6.9 mph - N/A   Clear
3:55 PM 55.4 °F - 27.7 °F 35% 29.87 in 10.0 mi WSW 5.8 mph - N/A   Clear
4:15 PM 54.3 °F - 29.1 °F 38% 29.88 in 10.0 mi SW 6.9 mph - N/A   Clear
4:35 PM 52.0 °F - 29.5 °F 42% 29.87 in 10.0 mi SSW 5.8 mph - N/A   Clear
4:55 PM 49.8 °F - 28.9 °F 45% 29.88 in 10.0 mi SSW 5.8 mph - N/A   Clear
5:15 PM 45.7 °F 42.7 °F 29.3 °F 53% 29.88 in 10.0 mi South 5.8 mph - N/A   Clear
5:35 PM 43.7 °F 41.1 °F 29.7 °F 58% 29.88 in 10.0 mi South 4.6 mph - N/A   Clear
5:55 PM 40.1 °F 36.1 °F 30.0 °F 67% 29.89 in 10.0 mi South 5.8 mph - N/A   Clear
6:15 PM 38.5 °F 34.1 °F 30.2 °F 72% 29.88 in 10.0 mi SSW 5.8 mph - N/A   Clear
6:35 PM 39.6 °F 34.7 °F 30.6 °F 70% 29.88 in 10.0 mi SSW 6.9 mph - N/A   Clear
6:55 PM 37.0 °F 32.4 °F 30.0 °F 76% 29.89 in 10.0 mi SSW 5.8 mph - N/A   Clear
7:15 PM 38.3 °F 33.2 °F 30.0 °F 72% 29.88 in 10.0 mi SSW 6.9 mph - N/A   Clear
7:35 PM 37.6 °F 31.6 °F 29.8 °F 74% 29.88 in 10.0 mi SSW 8.1 mph - N/A   Clear
7:55 PM 37.2 °F 32.6 °F 30.2 °F 76% 29.88 in 10.0 mi SSW 5.8 mph - N/A   Clear
8:15 PM 37.2 °F - 31.1 °F 79% 29.88 in 10.0 mi Calm Calm - N/A   Clear
8:35 PM 34.7 °F 31.8 °F 30.0 °F 83% 29.88 in 10.0 mi SSW 3.5 mph - N/A   Clear
8:55 PM 35.1 °F - 30.2 °F 82% 29.88 in 10.0 mi Calm Calm - N/A   Clear
9:15 PM 34.0 °F 31.0 °F 29.8 °F 85% 29.88 in 10.0 mi SSW 3.5 mph - N/A   Clear
9:35 PM 34.7 °F - 29.8 °F 82% 29.88 in 10.0 mi Calm Calm - N/A   Clear
9:55 PM 33.8 °F 30.8 °F 30.4 °F 87% 29.87 in 10.0 mi SSW 3.5 mph - N/A   Clear
10:15 PM 35.4 °F 31.5 °F 30.0 °F 81% 29.86 in 10.0 mi SSW 4.6 mph - N/A   Clear
10:35 PM 34.7 °F 31.8 °F 29.8 °F 82% 29.86 in 10.0 mi SSW 3.5 mph - N/A   Clear
10:55 PM 34.2 °F 31.2 °F 29.3 °F 82% 29.85 in 10.0 mi SSW 3.5 mph - N/A   Clear
11:15 PM 34.7 °F 31.8 °F 28.8 °F 79% 29.85 in 10.0 mi SSW 3.5 mph - N/A   Clear
11:35 PM 33.8 °F - 28.4 °F 81% 29.85 in 10.0 mi Calm Calm - N/A   Clear
11:55 PM 34.9 °F - 28.0 °F 76% 29.84 in 10.0 mi Calm Calm - N/A   Clear